User: anonymous   Login
Location: Unspecified
(0.0000°N, 0.0000°E)
Time: 07:56:05
(UTC+00:00)
Language:

CICERO 10 - Orbit

View from above orbital plane
View from above orbital plane
View from above satellite
View from above satellite

Ground track
Ground track

The orbit data is extracted from the following two-line orbital elements,

1 43690U 18088A   20223.92797339 +.00000810 +00000-0 +35293-4 0  9990
2 43690 085.0364 042.4186 0017084 107.6843 252.6265 15.20299730097039
Epoch (UTC): 10 August 2020 22:16:16
Eccentricity: 0.0017084
inclination: 85.0364°
perigee height: 493 km
apogee height: 517 km
right ascension of ascending node: 42.4186°
argument of perigee: 107.6843°
revolutions per day: 15.20299730
mean anomaly at epoch: 252.6265°
orbit number at epoch: 9703

The dashed part of the orbit path shows where the satellite is in the earth's shadow,  

DLR